• en France
  • Liste des pays
  • À 7 jours
  • Température de l'eau
  • Carte satellitaire
  • Carte météo
  • Widgets météo
  • user-avatar
    Se connecter

    Météo par heure à Sopron

    Ce jour, 19 Novembre, Dimanche

    Heure Température Précipitation Vent Pression Humidité
    00:00 +4°C° 0 mm 2 m/s 745 mmHg 81%
    01:00 +3°C° 0 mm 3 m/s 745 mmHg 80%
    02:00 +4°C° 0 mm 2 m/s 744 mmHg 80%
    03:00 +4°C° 0 mm 2 m/s 744 mmHg 80%
    04:00 +4°C° 0 mm 2 m/s 744 mmHg 80%
    05:00 +4°C° 0 mm 2 m/s 744 mmHg 80%
    06:00 +3°C° 0 mm 2 m/s 744 mmHg 80%
    07:00 +4°C° 0 mm 1 m/s 743 mmHg 82%
    08:00 +4°C° 0,2 mm 2 m/s 743 mmHg 79%
    09:00 +4°C° 0,2 mm 2 m/s 743 mmHg 77%
    10:00 +5°C° 0,2 mm 2 m/s 743 mmHg 75%
    11:00 +4°C° 0,3 mm 3 m/s 743 mmHg 73%
    12:00 +5°C° 0,3 mm 3 m/s 743 mmHg 71%
    13:00 +6°C° 0 mm 2 m/s 742 mmHg 70%
    14:00 +4°C° 0 mm 3 m/s 743 mmHg 71%
    15:00 +4°C° 0 mm 3 m/s 743 mmHg 72%
    16:00 +4°C° 0 mm 3 m/s 743 mmHg 73%
    17:00 +3°C° 0 mm 3 m/s 744 mmHg 73%
    18:00 +3°C° 0 mm 3 m/s 744 mmHg 74%
    19:00 +1°C° 0 mm 4 m/s 744 mmHg 75%
    20:00 +1°C° 0 mm 4 m/s 744 mmHg 75%
    21:00 +1°C° 0 mm 4 m/s 745 mmHg 76%
    22:00 +1°C° 0 mm 4 m/s 745 mmHg 76%
    23:00 +1°C° 0 mm 4 m/s 745 mmHg 76%

    Demain, 20 Novembre, Lundi

    Heure Température Précipitation Vent Pression Humidité
    00:00 +1°C° 0 mm 4 m/s 745 mmHg 76%
    01:00 +1°C° 0 mm 5 m/s 745 mmHg 76%
    02:00 +1°C° 0 mm 5 m/s 745 mmHg 75%
    03:00 +1°C° 0 mm 5 m/s 745 mmHg 74%
    04:00 +1°C° 0 mm 5 m/s 745 mmHg 73%
    05:00 +1°C° 0 mm 5 m/s 745 mmHg 72%
    06:00 +1°C° 0 mm 5 m/s 746 mmHg 71%
    07:00 +2°C° 0 mm 5 m/s 746 mmHg 70%
    08:00 +2°C° 0,1 mm 6 m/s 746 mmHg 67%
    09:00 +3°C° 0,1 mm 7 m/s 747 mmHg 63%
    10:00 +4°C° 0,1 mm 8 m/s 747 mmHg 59%
    11:00 +5°C° 0 mm 7 m/s 747 mmHg 57%
    12:00 +5°C° 0 mm 7 m/s 747 mmHg 56%
    13:00 +6°C° 0 mm 7 m/s 747 mmHg 54%
    14:00 +5°C° 0 mm 6 m/s 747 mmHg 56%
    15:00 +5°C° 0 mm 5 m/s 747 mmHg 59%
    16:00 +4°C° 0 mm 4 m/s 747 mmHg 62%
    17:00 +4°C° 0,1 mm 3 m/s 747 mmHg 64%
    18:00 +4°C° 0,1 mm 3 m/s 747 mmHg 65%
    19:00 +3°C° 0,1 mm 3 m/s 747 mmHg 67%
    20:00 +3°C° 0,2 mm 3 m/s 747 mmHg 68%
    21:00 +4°C° 0,2 mm 2 m/s 747 mmHg 70%
    22:00 +4°C° 0,2 mm 2 m/s 747 mmHg 71%
    23:00 +4°C° 0,3 mm 2 m/s 746 mmHg 73%

    Après-demain, 21 Novembre, Mardi

    Heure Température Précipitation Vent Pression Humidité
    00:00 +4°C° 0,3 mm 2 m/s 746 mmHg 74%
    01:00 +4°C° 0,3 mm 2 m/s 745 mmHg 75%
    02:00 +4°C° 0,4 mm 2 m/s 744 mmHg 76%
    03:00 +3°C° 0,4 mm 3 m/s 744 mmHg 77%
    04:00 +3°C° 0,4 mm 3 m/s 743 mmHg 78%
    05:00 +3°C° 0,1 mm 3 m/s 743 mmHg 77%
    06:00 +3°C° 0,1 mm 4 m/s 743 mmHg 76%
    07:00 +3°C° 0,1 mm 4 m/s 743 mmHg 75%
    08:00 +5°C° 0,1 mm 4 m/s 743 mmHg 72%
    09:00 +6°C° 0,1 mm 5 m/s 743 mmHg 70%
    10:00 +8°C° 0,1 mm 5 m/s 743 mmHg 67%
    11:00 +8°C° 0 mm 5 m/s 743 mmHg 67%
    12:00 +9°C° 0 mm 5 m/s 743 mmHg 66%
    13:00 +10°C° 0 mm 6 m/s 743 mmHg 65%
    14:00 +9°C° 0 mm 5 m/s 743 mmHg 68%
    15:00 +9°C° 0 mm 5 m/s 743 mmHg 71%
    16:00 +8°C° 0 mm 4 m/s 743 mmHg 73%
    17:00 +8°C° 0 mm 4 m/s 744 mmHg 75%
    18:00 +7°C° 0 mm 4 m/s 744 mmHg 76%
    19:00 +7°C° 0 mm 4 m/s 744 mmHg 78%
    20:00 +7°C° 0 mm 4 m/s 744 mmHg 78%
    21:00 +8°C° 0 mm 3 m/s 745 mmHg 79%
    22:00 +8°C° 0 mm 3 m/s 745 mmHg 80%
    23:00 +8°C° 0,1 mm 3 m/s 745 mmHg 80%

    22 Novembre, Mercredi

    Heure Température Précipitation Vent Pression Humidité
    00:00 +8°C° 0,1 mm 3 m/s 745 mmHg 80%
    01:00 +8°C° 0,1 mm 3 m/s 745 mmHg 80%
    02:00 +8°C° 0 mm 3 m/s 745 mmHg 79%
    03:00 +8°C° 0 mm 3 m/s 745 mmHg 78%
    04:00 +8°C° 0 mm 2 m/s 745 mmHg 78%
    05:00 +7°C° 0 mm 2 m/s 746 mmHg 78%
    06:00 +7°C° 0 mm 2 m/s 746 mmHg 79%
    07:00 +7°C° 0 mm 2 m/s 746 mmHg 79%
    08:00 +8°C° 0 mm 2 m/s 746 mmHg 75%
    09:00 +9°C° 0 mm 2 m/s 747 mmHg 71%
    10:00 +11°C° 0 mm 1 m/s 747 mmHg 66%
    11:00 +12°C° 0 mm 2 m/s 747 mmHg 63%
    12:00 +13°C° 0 mm 2 m/s 746 mmHg 61%
    13:00 +14°C° 0 mm 2 m/s 746 mmHg 58%
    14:00 +13°C° 0 mm 2 m/s 746 mmHg 63%
    15:00 +12°C° 0 mm 2 m/s 746 mmHg 69%
    16:00 +10°C° 0 mm 2 m/s 746 mmHg 75%
    17:00 +9°C° 0 mm 2 m/s 746 mmHg 77%
    18:00 +9°C° 0 mm 2 m/s 747 mmHg 80%
    19:00 +8°C° 0 mm 2 m/s 747 mmHg 82%
    20:00 +9°C° 0 mm 1 m/s 747 mmHg 82%
    21:00 +8°C° 0 mm 1 m/s 747 mmHg 82%
    22:00 +8°C° 0 mm 1 m/s 748 mmHg 81%
    23:00 +8°C° 0 mm 1 m/s 748 mmHg 81%

    23 Novembre, Jeudi

    Heure Température Précipitation Vent Pression Humidité
    00:00 +8°C° 0 mm 1 m/s 748 mmHg 81%
    01:00 +8°C° 0 mm 1 m/s 748 mmHg 81%
    02:00 +7°C° 0 mm 1 m/s 748 mmHg 81%
    03:00 +7°C° 0 mm 1 m/s 748 mmHg 81%
    04:00 +7°C° 0 mm 1 m/s 748 mmHg 82%
    05:00 +7°C° 0 mm 1 m/s 748 mmHg 82%
    06:00 +7°C° 0 mm 1 m/s 749 mmHg 82%
    07:00 +6°C° 0 mm 1 m/s 749 mmHg 82%
    08:00 +8°C° 0 mm 1 m/s 749 mmHg 78%
    09:00 +9°C° 0 mm 1 m/s 750 mmHg 74%
    10:00 +10°C° 0 mm 1 m/s 750 mmHg 69%
    11:00 +11°C° 0 mm 1 m/s 750 mmHg 66%
    12:00 +12°C° 0 mm 1 m/s 750 mmHg 63%
    13:00 +13°C° 0 mm 1 m/s 750 mmHg 60%
    14:00 +12°C° 0 mm 1 m/s 750 mmHg 65%
    15:00 +11°C° 0 mm 1 m/s 750 mmHg 71%
    16:00 +10°C° 0 mm 1 m/s 750 mmHg 76%
    17:00 +9°C° 0 mm 1 m/s 750 mmHg 77%
    18:00 +9°C° 0 mm 1 m/s 751 mmHg 78%
    19:00 +8°C° 0 mm 1 m/s 751 mmHg 79%
    20:00 +8°C° 0 mm 1 m/s 751 mmHg 79%
    21:00 +8°C° 0 mm 1 m/s 751 mmHg 78%
    22:00 +8°C° 0 mm 1 m/s 751 mmHg 78%
    23:00 +7°C° 0 mm 1 m/s 751 mmHg 78%

    24 Novembre, Vendredi

    Heure Température Précipitation Vent Pression Humidité
    00:00 +7°C° 0 mm 1 m/s 751 mmHg 78%
    01:00 +7°C° 0 mm 1 m/s 751 mmHg 78%
    02:00 +7°C° 0 mm 1 m/s 751 mmHg 79%
    03:00 +6°C° 0 mm 1 m/s 751 mmHg 79%
    04:00 +6°C° 0 mm 1 m/s 751 mmHg 80%
    05:00 +6°C° 0 mm 1 m/s 751 mmHg 81%
    06:00 +6°C° 0 mm 1 m/s 751 mmHg 81%
    07:00 +5°C° 0 mm 1 m/s 751 mmHg 82%
    08:00 +7°C° 0 mm 1 m/s 751 mmHg 79%
    09:00 +8°C° 0 mm 1 m/s 751 mmHg 75%
    10:00 +9°C° 0 mm 1 m/s 751 mmHg 72%
    11:00 +10°C° 0 mm 1 m/s 751 mmHg 70%
    12:00 +10°C° 0 mm 2 m/s 751 mmHg 68%
    13:00 +12°C° 0 mm 2 m/s 750 mmHg 66%
    14:00 +10°C° 0 mm 2 m/s 750 mmHg 72%
    15:00 +9°C° 0 mm 2 m/s 750 mmHg 78%
    16:00 +8°C° 0 mm 2 m/s 750 mmHg 84%
    17:00 +7°C° 0 mm 2 m/s 750 mmHg 87%
    18:00 +7°C° 0 mm 2 m/s 750 mmHg 89%
    19:00 +6°C° 0 mm 2 m/s 750 mmHg 91%
    20:00 +6°C° 0 mm 2 m/s 751 mmHg 91%
    21:00 +6°C° 0 mm 2 m/s 751 mmHg 91%
    22:00 +5°C° 0 mm 2 m/s 751 mmHg 92%
    23:00 +5°C° 0 mm 2 m/s 751 mmHg 92%
    Voir plus